Regional Weather Roundup
Issued by NWS

Home | Current Version | Previous Version | Text Only | Print | Product List | Glossary Off
Versions: 1 2 3 4 5 6 7 8 9 10 11 12 13 14 15 16 17 18 19 20 21 22 23 24 25 26 27

000
ASUS45 KBOU 291607
RWRCO

WEATHER ROUNDUP FOR COLORADO
NATIONAL WEATHER SERVICE DENVER/BOULDER CO
1000 AM MDT MON MAY 29 2017

NOTE: "FAIR" INDICATES FEW OR NO CLOUDS BELOW 12000 FEET WITH NO
SIGNIFICANT WEATHER AND/OR OBSTRUCTIONS TO VISIBILITY.

COZ001>005-013-030-031-291700-
...NORTHWEST COLORADO...

CITY           SKY/WX    TMP DP  RH WIND       PRES   REMARKS
CRAIG          FAIR      55  34  45 CALM      30.28F
HAYDEN         FAIR      55  34  44 CALM      30.29S
MEEKER         FAIR      58  35  42 CALM      30.27F
RABBIT EARS PA PTSUNNY   39  28  65 N6        30.45R
STEAMBOAT SPGS FAIR      53  38  57 CALM      30.29F
WALDEN           N/A     50  34  53 CALM      30.37S
$$

COZ006>008-011-291700-
...WEST CENTRAL VALLEYS...

CITY           SKY/WX    TMP DP  RH WIND       PRES   REMARKS
GRAND JUNCTION FAIR      67  31  26 SE12      30.18F
MONTROSE       FAIR      64  25  22 VRB3      30.24F
EAGLE          SUNNY     54  30  40 SW3       30.32F
RIFLE          FAIR      63  31  30 VRB3      30.23F
DELTA          FAIR      65  27  24 CALM      30.23S
NUCLA          FAIR      63  28  27 W3        30.26F
$$

COZ017>023-064>068-291700-
...SOUTHWEST COLORADO...

CITY           SKY/WX    TMP DP  RH WIND       PRES   REMARKS
DURANGO        FAIR      62  24  23 SE8       30.26S
CORTEZ         FAIR      66  19  16 S3        30.21F
PAGOSA SPRINGS FAIR      60  21  22 S8        30.32S
TELLURIDE      FAIR      57  14  18 W5        30.38F
WOLF CREEK PAS FAIR      39  14  35 S6        30.55S
$$

COZ009-010-012-014-032>034-037-058>063-291700-
...CENTRAL COLORADO...

CITY           SKY/WX    TMP DP  RH WIND       PRES   REMARKS
ASPEN          FAIR      56  31  38 VRB7      30.31F
BUENA VISTA    FAIR      54  27  36 CALM      30.35F
COPPER MTN     CLOUDY    39  21  48 W3        30.50S
BERTHOUD PASS  CLOUDY    34  25  69 E3G17     30.52S
COTTONWOOD PAS FAIR      52  28  40 E8        30.41F
GUNNISON       FAIR      51  26  37 CALM      30.33F
KREMMLING      FAIR      55  34  44 E3        30.35F
LEADVILLE      FAIR      46  21  37 VRB3      30.40S
MONARCH PASS   FAIR      41  18  38 W8G17     30.60S
SALIDA         FAIR      58  31  35 SE6       30.40F
SUNLIGHT       FAIR      43  18  36 CALM      30.49S
WILKERSON PASS FAIR      41  27  56 SW5       30.50F
$$

COZ069>075-291700-
...SAN LUIS VALLEY/SANGRE DE CRISTO MOUNTAINS...

CITY           SKY/WX    TMP DP  RH WIND       PRES   REMARKS
ALAMOSA        FAIR      56  29  35 SE7       30.31F
DEL NORTE      FAIR      56  29  35 SE5       30.34S
LA VETA PASS   FAIR      46  32  57 MISG      30.54F
SAGUACHE       FAIR      57  27  30 S5        30.33F
$$

COZ035-036-038>040-291700-
...NORTHERN COLORADO FRONT RANGE...

CITY           SKY/WX    TMP DP  RH WIND       PRES   REMARKS
DENVER INTL AP FAIR      62  42  47 SW5       30.27F
DMNS CITY PARK   N/A     62  39  42 NW3G16    30.26S
AURORA         MOSUNNY   60  40  46 CALM      30.27F
FRONT RANGE AP MOSUNNY   63  41  45 CALM      30.28F
ERIE MUNI ARPT FAIR      62  42  48 S3        30.26S
BOULDER MUN AP FAIR      63  41  45 SE3       30.25F
CENTENNIAL     FAIR      60  40  47 CALM      30.28F
BROOMFIELD     MOSUNNY   63  41  45 SE5       30.28F
FORT COLLINS   PTSUNNY   62  42  47 SE6       30.26F
LONGMONT       FAIR      65  44  46 S5        30.26F
$$

COZ041-046-047-076>085-087-088-291700-
...PIKES PEAK/PALMER DIVIDE AND SOUTHERN FOOTHILLS...

CITY           SKY/WX    TMP DP  RH WIND       PRES   REMARKS
COLO. SPRINGS  FAIR      61  37  41 S9        30.30F
A. F. ACADEMY  FAIR      59  36  42 S9        30.30F
SCHRIEVER AFB  FAIR      60  37  43 S8        30.31S
CHEYENNE MTN   FAIR      57  35  43 SE18G24   30.26F
ELLICOTT       FAIR     N/A N/A N/A S12       30.29S
FALCON         FAIR      59  36  42 S12G17    30.33F
FORT CARSON    FAIR      63  37  39 S10       30.29S
LIMON          FAIR      61  42  49 N7        30.28S
MONUMENT HILL  FAIR      52  36  54 SE7       30.34S
CANON CITY     NOT AVBL
WALSENBURG     FAIR      61  43  51 SE7       30.29F
TRINIDAD       FAIR      62  39  42 VRB6      30.28F
$$

COZ042>045-048>051-090-091-291700-
...NORTHEAST COLORADO...

CITY           SKY/WX    TMP DP  RH WIND       PRES   REMARKS
GREELEY ARPT   FAIR      62  45  53 VRB3      30.26F
AKRON          PTSUNNY   61  42  49 N10       30.25S
BURLINGTON     FAIR      66  44  45 NW14      30.22S
WRAY           FAIR      70  43  37 NW8       30.20S
YUMA           CLOUDY    63  30  29 N8        30.22S
STERLING       NOT AVBL
HOLYOKE        NOT AVBL
FORT MORGAN    FAIR      65  37  35 NW5       30.25S
$$

COZ086-089-092>099-291700-
...SOUTHEAST COLORADO...

CITY           SKY/WX    TMP DP  RH WIND       PRES   REMARKS
PUEBLO         FAIR      65  40  39 VRB5      30.25F
LA JUNTA       FAIR      65  44  46 CALM      30.25S
LAMAR          FAIR      67  45  45 N6        30.22F
SPRINGFIELD      N/A     63  41  44 SE3       30.24F
$$




USA.gov is the U.S. government's official web portal to all federal, state and local government web resources and services.